DMSP 5D-2 F8 DEB, 60251

Orbit data source: Space-Track

DMSP 5D-2 F8 DEB, 60251 is space debris in SSO originally from a launch on Sat, 20 Jun 1987 UTC launched from the Air Force Western Test Range (AFWTR). Debris objects in space refer to the collection of defunct objects orbiting the Earth. Examples of debris include non-operational satellites, rocket bodies, and fragments generated from explosions, collisions, or faulty payload assembly.

Loading next visibility...
Identifier
60251, 1987-053J
Orbit
SSO
Country
Flag of USUS
Related business
Manufacturer
Unknown
Mission
Spacecraft
Bus & Motor
Unknown
Mass
Unknown
Launch date (UTC)
Icon of a cake. It is the launch day of the satellite!1987-06-20 (39 years ago)
Launch vehicle
Unknown
Launch site
Air Force Western Test Range (AFWTR)
Object type
Payload
Rocket body
Debris
Shape & HBR
Box + 1 Pan, 0.4 m
Radar Cross Section
11.475 m², Medium (>0.1 m² and < 1m²)

Expand to show TLE details & history
Last TLE update: 10 hours ago

TLE from 10 hours ago
0 DMSP 5D-2 F8 DEB
1 60251U 87053J   26171.44524751  .00001968  00000-0  82400-3 0  9997
2 60251  98.7285   3.6065 0017375 102.6125 257.7000 14.27102819 99706
Epoch: 2026-06-20T10:41Z
TLE epoch observation values (Epoch: 2026-06-20T10:41:09.384Z)
Latitude
Longitude
-65.34237°
Altitude
807.034 km
Speed
7.448 km/s
True Right ascension
00h 14m 25s
True Declination
0° 00' 00"
Sunlit
Object was in daylight at epoch
Visualization orbit readout
Latitude
Unknown
Longitude
Unknown
Altitude
Unknown
Speed
Unknown
Apparent Right ascension
Unknown
Apparent Declination
Unknown
Sunlit
N/A
Visualization observer readout
Local Sidereal Time
07:17:18
Azimuth
Unknown
Elevation
Unknown
Doppler factor
Unknown
Orbital elements
Apogee altitude
811.051 km
Perigee altitude
786.112 km
Semi-major axis
7,176.718 km
Eccentricity
0.00174
Inclination
98.7285°
RAAN
3.6065°
Arg. of periapsis
102.6125°
True anomaly
257.50556°
Mean anomaly
257.7°
Eccentric anomaly
257.60277°
Mean motion
3.56989 °/min
Orbital period
100.84 mins
BSTAR
0.000824
Loading maneuver chart data...
Computing Atmospheric mass density...
Loading historical data...
Loading historical data...
Loading historical data...
Loading historical data...
Loading historical data...
Loading historical data...
Loading historical data...

Documentation

Showing up to 5 results
|